Weather History for Big Bear City, CA

Change the Weather History Date:

Saturday, June 7, 2014

  Actual Average (KBUO) Record (KBUO)
Temperature  
Mean Temperature 55 °F -  
Max Temperature 77 °F 76 °F 95 °F (2001)
Min Temperature 33 °F 52 °F 48 °F (1998)
Degree Days  
Heating Degree Days 10    
Growing Degree Days 5 (Base 50)    
Moisture  
Dew Point 22 °F    
Average Humidity 31    
Maximum Humidity 70    
Minimum Humidity 8    
Precipitation  
Precipitation 0.00 in - - ()
Sea Level Pressure  
Sea Level Pressure 30.08 in    
Wind  
Wind Speed 4 mph (NNW)    
Max Wind Speed 15 mph    
Max Gust Speed 23 mph    
Visibility 10 miles    
Events      
Averages and records for this station are not official NWS values.
T = Trace of Precipitation, MM = Missing Value Source: NWS Daily Summary

Daily Weather History Graph

Daily Weather History Graph

Search for Another Location

Airport:

Trip Planner

Search our weather history database for the weather conditions in past years. The results will help you decide how hot, cold, wet, or windy it might be!

Date:

Astronomy

Jun. 07, 2014 Rise Set
Actual Time 5:35 AM PDT 7:57 PM PDT
Civil Twilight 5:06 AM PDT 8:26 PM PDT
Nautical Twilight 4:30 AM PDT 9:02 PM PDT
Astronomical Twilight 3:51 AM PDT 9:41 PM PDT
Moon 2:32 PM PDT (6/7) 1:44 AM PDT (6/7)
Length of Visible Light 15h 20m
Length of Day
14h 22m
Waxing Gibbous, 69% of the Moon is Illuminated
Jun 7
Waxing Gibbous
Jun 12
Full
Jun 19
Last Quarter
Jun 27
New
Jul 5
First Quarter

Hourly Weather History & Observations

Time (PDT) Temp. Windchill Dew Point Humidity Pressure Visibility Wind Dir Wind Speed Gust Speed Precip Events Conditions
12:15 AM 42.8 °F 41.1 °F 28.4 °F 57% 30.07 in 10.0 mi West 3.5 mph - N/A   Clear
12:35 AM 42.8 °F 41.1 °F 30.2 °F 61% 30.07 in 10.0 mi WSW 3.5 mph - N/A   Clear
12:55 AM 41.0 °F - 28.4 °F 61% 30.07 in 10.0 mi Calm Calm - N/A   Clear
1:15 AM 41.0 °F - 28.4 °F 61% 30.06 in 10.0 mi Calm Calm - N/A   Clear
1:35 AM 39.2 °F - 28.4 °F 65% 30.06 in 10.0 mi Calm Calm - N/A   Clear
1:55 AM 37.4 °F 34.9 °F 26.6 °F 65% 30.06 in 10.0 mi WSW 3.5 mph - N/A   Clear
2:15 AM 39.2 °F 35.9 °F 28.4 °F 65% 30.06 in 10.0 mi West 4.6 mph - N/A   Clear
2:35 AM 41.0 °F - 30.2 °F 65% 30.05 in 10.0 mi Calm Calm - N/A   Clear
2:55 AM 37.4 °F 34.9 °F 24.8 °F 60% 30.05 in 10.0 mi SSW 3.5 mph - N/A   Clear
3:15 AM 37.4 °F - 24.8 °F 60% 30.05 in 10.0 mi Calm Calm - N/A   Clear
3:35 AM 35.6 °F - 26.6 °F 70% 30.04 in 10.0 mi Calm Calm - N/A   Clear
3:55 AM 35.6 °F - 23.0 °F 60% 30.04 in 10.0 mi Calm Calm - N/A   Clear
4:15 AM 35.6 °F - 21.2 °F 56% 30.04 in 10.0 mi Calm Calm - N/A   Clear
4:55 AM 35.6 °F - 23.0 °F 60% 30.04 in 10.0 mi Calm Calm - N/A   Clear
5:15 AM 33.8 °F - 21.2 °F 60% 30.05 in 10.0 mi Calm Calm - N/A   Clear
5:35 AM 33.8 °F - 21.2 °F 60% 30.05 in 10.0 mi Calm Calm - N/A   Clear
5:55 AM 33.8 °F - 21.2 °F 60% 30.05 in 10.0 mi Calm Calm - N/A   Clear
6:15 AM 35.6 °F - 21.2 °F 56% 30.05 in 10.0 mi Calm Calm - N/A   Clear
6:35 AM 37.4 °F - 23.0 °F 56% 30.06 in 10.0 mi Calm Calm - N/A   Clear
6:55 AM 41.0 °F - 26.6 °F 57% 30.06 in 10.0 mi Calm Calm - N/A   Clear
7:15 AM 46.4 °F - 30.2 °F 53% 30.07 in 10.0 mi Calm Calm - N/A   Clear
7:35 AM 50.0 °F - 30.2 °F 47% 30.07 in 10.0 mi Calm Calm - N/A   Clear
7:55 AM 55.4 °F - 28.4 °F 36% 30.07 in 10.0 mi Calm Calm - N/A   Clear
8:15 AM 59.0 °F - 28.4 °F 31% 30.08 in 10.0 mi West 3.5 mph - N/A   Clear
8:35 AM 62.6 °F - 26.6 °F 26% 30.07 in 10.0 mi Calm Calm - N/A   Clear
8:55 AM 64.4 °F - 23.0 °F 21% 30.07 in 10.0 mi ENE 3.5 mph - N/A   Clear
9:15 AM 68.0 °F - 19.4 °F 16% 30.07 in 10.0 mi East 6.9 mph - N/A   Clear
9:35 AM 69.8 °F - 19.4 °F 15% 30.07 in 10.0 mi East 8.1 mph - N/A   Clear
10:15 AM 69.8 °F - 17.6 °F 14% 30.08 in 10.0 mi NE 8.1 mph - N/A   Clear
10:35 AM 69.8 °F - 14.0 °F 12% 30.08 in 10.0 mi ENE 10.4 mph 19.6 mph N/A   Clear
10:55 AM 71.6 °F - 17.6 °F 13% 30.09 in 10.0 mi NE 9.2 mph 21.9 mph N/A   Clear
11:15 AM 69.8 °F - 14.0 °F 12% 30.09 in 10.0 mi NNE 8.1 mph 17.3 mph N/A   Clear
11:35 AM 71.6 °F - 12.2 °F 10% 30.09 in 10.0 mi East 13.8 mph 21.9 mph N/A   Clear
11:55 AM 71.6 °F - 12.2 °F 10% 30.09 in 10.0 mi East 9.2 mph 23.0 mph N/A   Clear
12:15 PM 71.6 °F - 14.0 °F 11% 30.09 in 10.0 mi East 11.5 mph 20.7 mph N/A   Clear
12:35 PM 71.6 °F - 15.8 °F 12% 30.09 in 10.0 mi ENE 11.5 mph 19.6 mph N/A   Clear
12:55 PM 71.6 °F - 14.0 °F 11% 30.09 in 10.0 mi North 8.1 mph 20.7 mph N/A   Clear
1:15 PM 71.6 °F - 15.8 °F 12% 30.09 in 10.0 mi ENE 15.0 mph - N/A   Clear
1:35 PM 71.6 °F - 15.8 °F 12% 30.08 in 10.0 mi South 9.2 mph 17.3 mph N/A   Clear
1:55 PM 73.4 °F - 17.6 °F 12% 30.08 in 10.0 mi NNE 6.9 mph 16.1 mph N/A   Clear
2:15 PM 73.4 °F - 19.4 °F 13% 30.08 in 10.0 mi NE 11.5 mph 19.6 mph N/A   Clear
2:35 PM 73.4 °F - 19.4 °F 13% 30.08 in 10.0 mi WNW 3.5 mph 18.4 mph N/A   Clear
2:55 PM 73.4 °F - 21.2 °F 14% 30.08 in 10.0 mi North 8.1 mph - N/A   Clear
3:15 PM 73.4 °F - 19.4 °F 13% 30.07 in 10.0 mi West 8.1 mph - N/A   Clear
3:35 PM 73.4 °F - 19.4 °F 13% 30.07 in 10.0 mi NW 6.9 mph - N/A   Clear
3:55 PM 75.2 °F - 17.6 °F 11% 30.07 in 10.0 mi NW 9.2 mph 16.1 mph N/A   Clear
4:15 PM 73.4 °F - 19.4 °F 13% 30.07 in 10.0 mi NNW 5.8 mph - N/A   Clear
4:35 PM 77.0 °F - 19.4 °F 12% 30.07 in 10.0 mi NW 13.8 mph 20.7 mph N/A   Clear
4:55 PM 75.2 °F - 17.6 °F 11% 30.07 in 10.0 mi NNW 4.6 mph 20.7 mph N/A   Clear
5:15 PM 73.4 °F - 15.8 °F 11% 30.07 in 10.0 mi NW 5.8 mph 17.3 mph N/A   Clear
5:35 PM 75.2 °F - 8.6 °F 8% 30.07 in 10.0 mi NE 6.9 mph 23.0 mph N/A   Clear
5:55 PM 75.2 °F - 10.4 °F 8% 30.07 in 10.0 mi NW 12.7 mph 18.4 mph N/A   Clear
6:15 PM 75.2 °F - 12.2 °F 9% 30.07 in 10.0 mi NNW 10.4 mph 16.1 mph N/A   Clear
6:35 PM 73.4 °F - 12.2 °F 10% 30.07 in 10.0 mi NNE 4.6 mph 17.3 mph N/A   Clear
6:55 PM 73.4 °F - 14.0 °F 10% 30.07 in 10.0 mi NNE 8.1 mph - N/A   Clear
7:15 PM 73.4 °F - 14.0 °F 10% 30.08 in 10.0 mi NW 8.1 mph - N/A   Clear
7:35 PM 71.6 °F - 15.8 °F 12% 30.08 in 10.0 mi Calm Calm - N/A   Clear
7:55 PM 71.6 °F - 17.6 °F 13% 30.08 in 10.0 mi Calm Calm - N/A   Clear
8:15 PM 68.0 °F - 19.4 °F 16% 30.08 in 10.0 mi Calm Calm - N/A   Clear
8:35 PM 64.4 °F - 32.0 °F 30% 30.09 in 10.0 mi West 10.4 mph - N/A   Clear
8:55 PM 64.4 °F - 30.2 °F 28% 30.10 in 10.0 mi West 9.2 mph - N/A   Clear
9:15 PM 62.6 °F - 32.0 °F 32% 30.11 in 10.0 mi SSW 3.5 mph - N/A   Clear
9:35 PM 62.6 °F - 32.0 °F 32% 30.12 in 10.0 mi SSW 4.6 mph - N/A   Clear
9:55 PM 60.8 °F - 32.0 °F 34% 30.12 in 10.0 mi South 3.5 mph - N/A   Clear
10:15 PM 60.8 °F - 32.0 °F 34% 30.12 in 10.0 mi Calm Calm - N/A   Clear
10:35 PM 59.0 °F - 30.2 °F 34% 30.13 in 10.0 mi Calm Calm - N/A   Clear
10:55 PM 59.0 °F - 30.2 °F 34% 30.13 in 10.0 mi Calm Calm - N/A   Clear
11:15 PM 55.4 °F - 30.2 °F 38% 30.13 in 10.0 mi Calm Calm - N/A   Clear
11:35 PM 53.6 °F - 28.4 °F 38% 30.12 in 10.0 mi Calm Calm - N/A   Clear
11:55 PM 53.6 °F - 28.4 °F 38% 30.13 in 10.0 mi Calm Calm - N/A   Clear